Weather History for Crossville, TN

Change the Weather History Date:

Saturday, October 12, 2013

  Actual Average Record
Temperature  
Mean Temperature 63 °F 58 °F  
Max Temperature 77 °F 69 °F 81 °F (1954)
Min Temperature 49 °F 47 °F 31 °F (2006)
Degree Days  
Heating Degree Days 2    
Month to date heating degree days 23  
Since 1 July heating degree days 38  
Cooling Degree Days 0    
Month to date cooling degree days 25  
Year to date cooling degree days 918  
Growing Degree Days 12 (Base 50)    
Moisture  
Dew Point 51 °F    
Average Humidity 67    
Maximum Humidity 93    
Minimum Humidity 41    
Precipitation  
Precipitation 0.00 in 0.10 in 2.15 in (1986)
Month to date precipitation 0.45 1.21  
Year to date precipitation 50.10 43.21  
Sea Level Pressure  
Sea Level Pressure 30.09 in    
Wind  
Wind Speed 2 mph (WNW)    
Max Wind Speed 9 mph    
Max Gust Speed 14 mph    
Visibility 10 miles    
Events      
T = Trace of Precipitation, MM = Missing Value Source: NWS Daily Summary

Daily Weather History Graph

Daily Weather History Graph

Search for Another Location

Airport:

Trip Planner

Search our weather history database for the weather conditions in past years. The results will help you decide how hot, cold, wet, or windy it might be!

Date:

Astronomy

Oct. 12, 2013 Rise Set
Actual Time 6:44 AM CDT 6:08 PM CDT
Civil Twilight 6:18 AM CDT 6:33 PM CDT
Nautical Twilight 5:49 AM CDT 7:03 PM CDT
Astronomical Twilight 5:19 AM CDT 7:33 PM CDT
Moon 2:06 PM CDT (10/12) No Moon Set
Length of Visible Light 12h 14m
Length of Day
11h 23m
First Quarter, 59% of the Moon is Illuminated
Oct 12
First Quarter
Oct 18
Full
Oct 26
Last Quarter
Nov 3
New
Nov 9
First Quarter

Hourly Weather History & Observations

Time (CDT) Temp. Dew Point Humidity Pressure Visibility Wind Dir Wind Speed Gust Speed Precip Events Conditions
12:04 AM 53.6 °F 50.0 °F 88% 30.08 in 10.0 mi West 3.5 mph - N/A   Clear
12:53 AM 52.0 °F 48.9 °F 89% 30.04 in 10.0 mi Calm Calm - N/A   Clear
1:53 AM 51.1 °F 48.9 °F 92% 30.05 in 10.0 mi Calm Calm - N/A   Clear
2:53 AM 51.1 °F 48.0 °F 89% 30.05 in 10.0 mi Calm Calm - N/A   Clear
3:53 AM 51.1 °F 48.9 °F 92% 30.05 in 10.0 mi Calm Calm - N/A   Clear
4:53 AM 48.9 °F 46.9 °F 93% 30.06 in 9.0 mi Calm Calm - N/A   Clear
5:53 AM 50.0 °F 46.9 °F 89% 30.08 in 10.0 mi Calm Calm - N/A   Clear
6:53 AM 48.9 °F 46.9 °F 93% 30.09 in 10.0 mi Calm Calm - N/A   Clear
7:53 AM 54.0 °F 52.0 °F 93% 30.10 in 10.0 mi Calm Calm - 0.01 in   Clear
8:53 AM 64.0 °F 55.9 °F 75% 30.10 in 10.0 mi Calm Calm - N/A   Clear
9:53 AM 69.1 °F 55.0 °F 61% 30.09 in 10.0 mi Calm Calm - N/A   Clear
10:53 AM 71.1 °F 53.1 °F 53% 30.10 in 10.0 mi Variable 4.6 mph - N/A   Clear
11:53 AM 73.0 °F 52.0 °F 48% 30.11 in 10.0 mi West 3.5 mph - N/A   Mostly Cloudy
12:53 PM 75.0 °F 52.0 °F 44% 30.09 in 10.0 mi Variable 4.6 mph - N/A   Mostly Cloudy
1:53 PM 75.0 °F 54.0 °F 48% 30.09 in 10.0 mi NNW 9.2 mph - N/A   Scattered Clouds
2:53 PM 75.9 °F 51.1 °F 42% 30.09 in 10.0 mi WNW 8.1 mph - N/A   Scattered Clouds
3:53 PM 75.0 °F 50.0 °F 41% 30.09 in 10.0 mi WNW 6.9 mph - N/A   Clear
4:53 PM 71.1 °F 51.1 °F 49% 30.10 in 10.0 mi NW 5.8 mph - N/A   Clear
5:53 PM 68.0 °F 55.0 °F 63% 30.10 in 10.0 mi West 3.5 mph - N/A   Clear
6:53 PM 62.1 °F 55.0 °F 78% 30.10 in 10.0 mi Calm Calm - N/A   Clear
7:53 PM 60.1 °F 55.0 °F 83% 30.11 in 10.0 mi Calm Calm - N/A   Clear
8:53 PM 57.0 °F 54.0 °F 89% 30.11 in 10.0 mi Calm Calm - N/A   Clear
9:53 PM 55.9 °F 53.1 °F 90% 30.13 in 10.0 mi Calm Calm - N/A   Clear
10:53 PM 54.0 °F 51.1 °F 90% 30.15 in 9.0 mi Calm Calm - N/A   Clear
11:53 PM 53.1 °F 50.0 °F 89% 30.14 in 7.0 mi Calm Calm - N/A   Clear